Location: Albuquerque Trailhead
(34.7934°N, 106.3736°W)
Time: 01:12:04
(UTC+00:00)

DELTA 2 R/B (1) - Pass Details

Date: 20 June 2021
Orbit: 789 x 804 km, 39.6° (Epoch: 27 July)

Event Time Altitude Azimuth Distance (km) Brightness Sun altitude
Exits shadow 10:21:16 - 287° (WNW) 3,251 6.5 -15.8°
Reaches altitude 10° 10:23:44 10° 291° (WNW) 2,347 5.8 -15.4°
Maximum altitude 10:29:11 59° 11° (N) 910 4.1 -14.6°
Drops below altitude 10° 10:34:39 10° 90° (E) 2,351 6.7 -13.8°
Sets 10:37:11 0° 94° (E) 3,281 7.5 -13.4°
